H1 CPF 2 NER 2025 8 7 9 219 01 glonass132 H2 1401201 9132 39620 2025 8 7 0 0 0 2025 8 10 23 45 0 900 1 1 0 0 0 1 H9 10 0 60894 0.00000 0 14800557.259 10550283.347 17893418.609 10 0 60894 900.00000 0 12506150.385 10157113.281 19777023.718 10 0 60894 1800.00000 0 9981386.029 9926867.714 21276563.195 10 0 60894 2700.00000 0 7287951.063 9889339.927 22363088.818 10 0 60894 3600.00000 0 4493206.937 10062919.171 23015682.424 10 0 60894 4500.00000 0 1667614.427 10453738.661 23221846.729 10 0 60894 5400.00000 0 -1117961.171 11055355.220 22977733.593 10 0 60894 6300.00000 0 -3794953.544 11848973.110 22288206.557 10 0 60894 7200.00000 0 -6299696.801 12804201.973 21166737.404 10 0 60894 8100.00000 0 -8575818.608 13880316.792 19635139.353 10 0 60894 9000.00000 0 -10576327.654 15027967.086 17723142.297 10 0 60894 9900.00000 0 -12265310.652 16191264.034 15467818.172 10 0 60894 10800.00000 0 -13619170.211 17310158.720 12912867.173 10 0 60894 11700.00000 0 -14627353.746 18323012.516 10107777.909 10 0 60894 12600.00000 0 -15292544.404 19169252.629 7106876.981 10 0 60894 13500.00000 0 -15630307.179 19792002.064 3968285.543 10 0 60894 14400.00000 0 -15668205.742 20140574.112 752802.174 10 0 60894 15300.00000 0 -15444427.498 20172726.777 -2477266.956 10 0 60894 16200.00000 0 -15005974.752 19856582.307 -5659308.561 10 0 60894 17100.00000 0 -14406498.005 19172130.625 -8731610.558 10 0 60894 18000.00000 0 -13703862.406 18112252.598 -11634555.046 10 0 60894 18900.00000 0 -12957549.634 16683218.910 -14311773.018 10 0 60894 19800.00000 0 -12226004.500 14904642.012 -16711238.494 10 0 60894 20700.00000 0 -11564038.025 12808881.390 -18786280.822 10 0 60894 21600.00000 0 -11020396.545 10439925.113 -20496495.425 10 0 60894 22500.00000 0 -10635599.560 7851792.460 -21808535.160 10 0 60894 23400.00000 0 -10440137.997 5106522.515 -22696766.631 10 0 60894 24300.00000 0 -10453109.554 2271830.954 -23143778.304 10 0 60894 25200.00000 0 -10681349.588 -581468.749 -23140730.032 10 0 60894 26100.00000 0 -11119095.319 -3382173.300 -22687536.488 10 0 60894 27000.00000 0 -11748198.683 -6061414.752 -21792880.130 10 0 60894 27900.00000 0 -12538880.056 -8555289.773 -20474052.571 10 0 60894 28800.00000 0 -13450992.131 -10807283.541 -18756626.492 10 0 60894 29700.00000 0 -14435741.373 -12770387.156 -16673963.711 10 0 60894 30600.00000 0 -15437794.884 -14408819.963 -14266568.236 10 0 60894 31500.00000 0 -16397683.672 -15699284.751 -11581296.616 10 0 60894 32400.00000 0 -17254400.459 -16631703.382 -8670440.889 10 0 60894 33300.00000 0 -17948081.345 -17209402.348 -5590702.312 10 0 60894 34200.00000 0 -18422656.925 -17448741.350 -2402076.670 10 0 60894 35100.00000 0 -18628359.393 -17378201.612 833326.108 10 0 60894 36000.00000 0 -18523978.406 -17036973.993 4052503.771 10 0 60894 36900.00000 0 -18078769.207 -16473108.298 7192799.740 10 0 60894 37800.00000 0 -17273931.583 -15741303.830 10193131.893 10 0 60894 38700.00000 0 -16103596.698 -14900436.417 12995187.095 10 0 60894 39600.00000 0 -14575279.990 -14010927.958 15544557.452 10 0 60894 40500.00000 0 -12709781.210 -13132070.820 17791795.862 10 0 60894 41400.00000 0 -10540536.083 -12319420.759 19693370.491 10 0 60894 42300.00000 0 -8112447.205 -11622368.445 21212500.215 10 0 60894 43200.00000 0 -5480243.364 -11081991.577 22319855.805 10 0 60894 44100.00000 0 -2706435.928 -10729277.131 22994114.521 10 0 60894 45000.00000 0 141042.730 -10583787.330 23222358.764 10 0 60894 45900.00000 0 2991421.043 -10652824.069 23000312.441 10 0 60894 46800.00000 0 5773784.020 -10931125.532 22332411.735 10 0 60894 47700.00000 0 8419772.284 -11401106.592 21231709.846 10 0 60894 48600.00000 0 10866173.997 -12033632.045 19719618.203 10 0 60894 49500.00000 0 13057303.893 -12789289.753 17825489.387 10 0 60894 50400.00000 0 14947072.433 -13620110.186 15586049.716 10 0 60894 51300.00000 0 16500660.912 -14471660.430 13044692.075 10 0 60894 52200.00000 0 17695734.465 -15285425.257 10250641.961 10 0 60894 53100.00000 0 18523143.785 -16001375.888 7258012.131 10 0 60894 54000.00000 0 18987087.407 -16560619.144 4124763.289 10 0 60894 54900.00000 0 19104728.546 -16908016.136 911590.082 10 0 60894 55800.00000 0 18905283.010 -16994660.664 -2319246.683 10 0 60894 56700.00000 0 18428616.620 -16780113.038 -5505119.594 10 0 60894 57600.00000 0 17723411.006 -16234294.961 -8584243.168 10 0 60894 58500.00000 0 16844974.644 -15338964.972 -11496868.213 10 0 60894 59400.00000 0 15852790.928 -14088711.244 -14186439.032 10 0 60894 60300.00000 0 14807906.113 -12491418.482 -16600691.125 10 0 60894 61200.00000 0 13770266.841 -10568187.492 -18692668.058 10 0 60894 62100.00000 0 12796119.140 -8352708.755 -20421637.673 10 0 60894 63000.00000 0 11935578.397 -5890114.085 -21753889.721 10 0 60894 63900.00000 0 11230472.762 -3235352.270 -22663399.118 10 0 60894 64800.00000 0 10712551.143 -451154.537 -23132341.584 10 0 60894 65700.00000 0 10402131.764 2394327.050 -23151451.102 10 0 60894 66600.00000 0 10307248.935 5230111.238 -22720211.583 10 0 60894 67500.00000 0 10423334.754 7985102.335 -21846878.215 10 0 60894 68400.00000 0 10733450.017 10590815.654 -20548327.156 10 0 60894 69300.00000 0 11209055.352 12984000.303 -18849735.636 10 0 60894 70200.00000 0 11811290.623 15109049.935 -16784097.809 10 0 60894 71100.00000 0 12492708.928 16920100.641 -14391585.131 10 0 60894 72000.00000 0 13199391.851 18382728.010 -11718763.320 10 0 60894 72900.00000 0 13873356.109 19475172.104 -8817681.095 10 0 60894 73800.00000 0 14455149.046 20189039.251 -5744848.788 10 0 60894 74700.00000 0 14886521.969 20529451.438 -2560127.457 10 0 60894 75600.00000 0 15113066.777 20514637.832 674448.845 10 0 60894 76500.00000 0 15086702.992 20174987.003 3895893.395 10 0 60894 77400.00000 0 14767908.549 19551601.287 7041504.564 10 0 60894 78300.00000 0 14127598.953 18694416.096 10050095.589 10 0 60894 79200.00000 0 13148574.625 17659965.376 12863191.288 10 0 60894 80100.00000 0 11826474.834 16508889.162 15426167.640 10 0 60894 81000.00000 0 10170197.885 15303289.766 17689311.725 10 0 60894 81900.00000 0 8201769.976 14104048.960 19608781.525 10 0 60894 82800.00000 0 5955668.461 12968219.566 21147447.527 10 0 60894 83700.00000 0 3477628.082 11946600.985 22275600.734 10 0 60894 84600.00000 0 822980.151 11081599.834 22971514.669 10 0 60894 85500.00000 0 -1945406.150 10405464.377 23221851.808 10 0 60895 0.00000 0 -4759494.834 9938965.328 23021908.063 10 0 60895 900.00000 0 -7548670.288 9690576.575 22375691.618 10 0 60895 1800.00000 0 -10242430.423 9656189.139 21295835.948 10 0 60895 2700.00000 0 -12773080.441 9819368.171 19803349.022 10 0 60895 3600.00000 0 -15078313.286 10152141.864 17927203.925 10 0 60895 4500.00000 0 -17103572.788 10616288.226 15703778.743 10 0 60895 5400.00000 0 -18804102.769 11165065.528 13176156.094 10 0 60895 6300.00000 0 -20146598.409 11745313.852 10393295.189 10 0 60895 7200.00000 0 -21110392.401 12299839.760 7409091.665 10 0 60895 8100.00000 0 -21688127.499 12769984.274 4281342.503 10 0 60895 9000.00000 0 -21885888.080 13098266.603 1070635.246 10 0 60895 9900.00000 0 -21722785.637 13230992.614 -2160817.688 10 0 60895 10800.00000 0 -21230015.743 13120718.322 -5350377.602 10 0 60895 11700.00000 0 -20449425.898 12728464.391 -8436188.258 10 0 60895 12600.00000 0 -19431654.136 12025587.787 -11358371.590 10 0 60895 13500.00000 0 -18233916.172 10995230.782 -14060187.379 10 0 60895 14400.00000 0 -16917533.649 9633284.962 -16489134.494 10 0 60895 15300.00000 0 -15545306.930 7948827.979 -18597972.279 10 0 60895 16200.00000 0 -14178842.530 5964012.701 -20345642.212 10 0 60895 17100.00000 0 -12875947.229 3713411.166 -21698071.785 10 0 60895 18000.00000 0 -11688198.306 1242838.570 -22628844.711 10 0 60895 18900.00000 0 -10658792.044 -1392295.779 -23119724.071 10 0 60895 19800.00000 0 -9820761.157 -4129043.718 -23161017.745 10 0 60895 20700.00000 0 -9195636.436 -6899295.651 -22751778.301 10 0 60895 21600.00000 0 -8792609.375 -9632382.347 -21899832.725 10 0 60895 22500.00000 0 -8608231.508 -12257793.595 -20621640.486 10 0 60895 23400.00000 0 -8626663.606 -14707900.802 -18941981.806 10 0 60895 24300.00000 0 -8820464.559 -16920570.034 -16893481.374 10 0 60895 25200.00000 0 -9151886.784 -18841556.229 -14515976.055 10 0 60895 26100.00000 0 -9574623.273 -20426578.037 -11855738.539 10 0 60895 27000.00000 0 -10035931.916 -21642986.099 -8964571.958 10 0 60895 27900.00000 0 -10479046.386 -22470954.606 -5898793.402 10 0 60895 28800.00000 0 -10845770.317 -22904146.058 -2718126.868 10 0 60895 29700.00000 0 -11079143.548 -22949821.770 515471.761 10 0 60895 30600.00000 0 -11126065.944 -22628394.209 3739033.575 10 0 60895 31500.00000 0 -10939766.202 -21972441.268 6889814.180 10 0 60895 32400.00000 0 -10482009.892 -21025225.684 9906524.437 10 0 60895 33300.00000 0 -9724952.270 -19838783.566 12730529.371 10 0 60895 34200.00000 0 -8652556.900 -18471664.381 15306991.055 10 0 60895 35100.00000 0 -7261519.879 -16986419.052 17585932.864 10 0 60895 36000.00000 0 -5561660.632 -15446943.008 19523204.560 10 0 60895 36900.00000 0 -3575762.963 -13915786.572 21081329.973 10 0 60895 37800.00000 0 -1338873.199 -12451545.698 22230221.816 10 0 60895 38700.00000 0 1102915.133 -11106441.979 22947751.028 10 0 60895 39600.00000 0 3694139.372 -9924192.328 23220160.992 10 0 60895 40500.00000 0 6372038.953 -8938256.040 23042320.025 10 0 60895 41400.00000 0 9068934.243 -8170530.857 22417808.522 10 0 60895 42300.00000 0 11714815.014 -7630550.781 21358840.045 10 0 60895 43200.00000 0 14240032.287 -7315217.438 19886018.572 10 0 60895 44100.00000 0 16577983.177 -7209074.718 18027936.841 10 0 60895 45000.00000 0 18667678.746 -7285114.021 15820623.509 10 0 60895 45900.00000 0 20456089.667 -7506075.552 13306849.381 10 0 60895 46800.00000 0 21900173.579 -7826190.683 10535305.468 10 0 60895 47700.00000 0 22968500.878 -8193292.115 7559667.998 10 0 60895 48600.00000 0 23642412.150 -8551203.330 4437567.596 10 0 60895 49500.00000 0 23916659.568 -8842307.049 1229481.760 10 0 60895 50400.00000 0 23799505.770 -9010184.838 -2002428.633 10 0 60895 51300.00000 0 23312276.163 -9002216.784 -5195516.866 10 0 60895 52200.00000 0 22488383.209 -8772031.584 -8287859.203 10 0 60895 53100.00000 0 21371863.206 -8281703.367 -11219451.848 10 0 60895 54000.00000 0 20015486.450 -7503601.899 -13933373.008 10 0 60895 54900.00000 0 18478519.464 -6421817.057 -16376887.611 10 0 60895 55800.00000 0 16824232.631 -5033096.098 -18502473.194 10 0 60895 56700.00000 0 15117257.256 -3347252.425 -20268746.987 10 0 60895 57600.00000 0 13420902.494 -1387026.517 -21641276.034 10 0 60895 58500.00000 0 11794544.358 812597.406 -22593254.322 10 0 60895 59400.00000 0 10291196.164 3205592.709 -23106033.446 10 0 60895 60300.00000 0 8955362.243 5736561.662 -23169495.943 10 0 60895 61200.00000 0 7821265.105 8342808.836 -22782263.416 10 0 60895 62100.00000 0 6911520.624 10956731.687 -21951734.610 10 0 60895 63000.00000 0 6236317.158 13508429.715 -20693951.829 10 0 60895 63900.00000 0 5793133.313 15928424.008 -19033297.382 10 0 60895 64800.00000 0 5567006.356 18150373.854 -17002025.141 10 0 60895 65700.00000 0 5531339.920 20113676.813 -14639635.603 10 0 60895 66600.00000 0 5649216.586 21765842.961 -11992106.227 10 0 60895 67500.00000 0 5875159.298 23064543.437 -9110991.945 10 0 60895 68400.00000 0 6157266.183 23979246.813 -6052413.646 10 0 60895 69300.00000 0 6439627.193 24492374.232 -2875955.031 10 0 60895 70200.00000 0 6664918.723 24599924.738 356509.621 10 0 60895 71100.00000 0 6777064.686 24311544.817 3582032.758 10 0 60895 72000.00000 0 6723849.652 23650040.101 6737830.718 10 0 60895 72900.00000 0 6459371.943 22650350.989 9762515.387 10 0 60895 73800.00000 0 5946231.597 21358036.772 12597295.190 10 0 60895 74700.00000 0 5157359.831 19827333.696 15187121.195 10 0 60895 75600.00000 0 4077412.135 18118870.072 17481755.677 10 0 60895 76500.00000 0 2703666.050 16297135.779 19436742.444 10 0 60895 77400.00000 0 1046385.871 14427813.213 21014260.589 10 0 60895 78300.00000 0 -871360.907 12575081.928 22183846.077 10 0 60895 79200.00000 0 -3014427.588 10799009.521 22922968.400 10 0 60895 80100.00000 0 -5336822.393 9153137.104 23217452.541 10 0 60895 81000.00000 0 -7783401.369 7682358.890 23061739.474 10 0 60895 81900.00000 0 -10291950.034 6421182.735 22458981.448 10 0 60895 82800.00000 0 -12795567.830 5392442.329 21420971.228 10 0 60895 83700.00000 0 -15225257.284 4606512.812 19967907.339 10 0 60895 84600.00000 0 -17512611.503 4061060.731 18128000.152 10 0 60895 85500.00000 0 -19592489.615 3741337.160 15936926.355 10 0 60896 0.00000 0 -21405570.175 3621000.482 13437142.198 10 0 60896 900.00000 0 -22900678.483 3663433.449 10677066.739 10 0 60896 1800.00000 0 -24036789.619 3823498.885 7710153.493 10 0 60896 2700.00000 0 -24784627.779 4049659.923 4593863.138 10 0 60896 3600.00000 0 -25127793.200 4286375.849 1388559.568 10 0 60896 4500.00000 0 -25063370.844 4476672.749 -1843651.334 10 0 60896 5400.00000 0 -24601995.145 4564780.799 -5040118.096 10 0 60896 6300.00000 0 -23767367.760 4498727.032 -8138852.539 10 0 60896 7200.00000 0 -22595248.020 4232774.001 -11079727.943 10 0 60896 8100.00000 0 -21131957.674 3729600.950 -13805643.461 10 0 60896 9000.00000 0 -19432461.849 2962134.673 -16263632.277 10 0 60896 9900.00000 0 -17558105.866 1914951.612 -18405891.941 10 0 60896 10800.00000 0 -15574102.004 585190.588 -20190716.817 10 0 60896 11700.00000 0 -13546870.789 -1017064.195 -21583314.404 10 0 60896 12600.00000 0 -11541347.627 -2868948.121 -22556489.383 10 0 60896 13500.00000 0 -9618367.130 -4935524.463 -23091181.765 10 0 60896 14400.00000 0 -7832234.334 -7171008.663 -23176848.189 10 0 60896 15300.00000 0 -6228584.429 -9520459.412 -22811678.287 10 0 60896 16200.00000 0 -4842620.597 -11921867.698 -22002641.184 10 0 60896 17100.00000 0 -3697803.881 -14308557.894 -20765360.298 10 0 60896 18000.00000 0 -2805050.103 -16611801.466 -19123818.034 10 0 60896 18900.00000 0 -2162467.514 -18763534.529 -17109895.237 10 0 60896 19800.00000 0 -1755646.068 -20699065.457 -14762753.657 10 0 60896 20700.00000 0 -1558485.678 -22359658.892 -12128073.063 10 0 60896 21600.00000 0 -1534527.836 -23694887.155 -9257157.710 10 0 60896 22500.00000 0 -1638733.355 -24664649.628 -6205929.825 10 0 60896 23400.00000 0 -1819629.748 -25240774.718 -3033830.441 10 0 60896 24300.00000 0 -2021735.789 -25408136.473 197350.067 10 0 60896 25200.00000 0 -2188158.854 -25165238.831 3424687.677 10 0 60896 26100.00000 0 -2263253.239 -24524243.308 6585361.569 10 0 60896 27000.00000 0 -2195225.229 -23510439.679 9617886.659 10 0 60896 27900.00000 0 -1938573.191 -22161183.113 12463316.688 10 0 60896 28800.00000 0 -1456258.364 -20524343.738 15066393.564 10 0 60896 29700.00000 0 -721513.904 -18656335.261 17376620.178 10 0 60896 30600.00000 0 280784.525 -16619806.615 19349235.959 10 0 60896 31500.00000 0 1553244.397 -14481094.450 20946076.647 10 0 60896 32400.00000 0 3085614.801 -12307543.599 22136302.617 10 0 60896 33300.00000 0 4854991.883 -10164807.519 22896982.831 10 0 60896 34200.00000 0 6826562.453 -8114240.846 23213524.515 10 0 60896 35100.00000 0 8954854.675 -6210491.676 23079941.679 10 0 60896 36000.00000 0 11185443.891 -4499392.313 22498958.538 10 0 60896 36900.00000 0 13457042.969 -3016234.489 21481946.907 10 0 60896 37800.00000 0 15703890.949 -1784498.839 20048699.453 10 0 60896 38700.00000 0 17858341.611 -815089.526 18227043.502 10 0 60896 39600.00000 0 19853545.392 -106104.072 16052302.828 10 0 60896 40500.00000 0 21626114.266 356853.628 13566617.409 10 0 60896 41400.00000 0 23118659.797 599831.461 10818133.684 10 0 60896 42300.00000 0 24282099.562 659194.561 7860080.137 10 0 60896 43200.00000 0 25077636.516 579854.576 4749745.261 10 0 60896 44100.00000 0 25478329.132 413137.375 1547376.794 10 0 60896 45000.00000 0 25470186.817 214378.890 -1684977.176 10 0 60896 45900.00000 0 25052744.642 40350.284 -4884663.405 10 0 60896 46800.00000 0 24239092.838 -53379.073 -7989632.306 10 0 60896 47700.00000 0 23055359.162 -15029.533 -10939637.238 10 0 60896 48600.00000 0 21539664.900 200959.491 -13677401.172 10 0 60896 49500.00000 0 19740597.265 631761.845 -16149728.220 10 0 60896 50400.00000 0 17715261.124 1304350.956 -18308538.376 10 0 60896 51300.00000 0 15526990.614 2234117.897 -20111805.340 10 0 60896 52200.00000 0 13242815.417 3423981.001 -21524379.024 10 0 60896 53100.00000 0 10930786.920 4864026.407 -22518676.516 10 0 60896 54000.00000 0 8657275.334 6531696.729 -23075227.709 10 0 60896 54900.00000 0 6484350.271 8392522.141 -23183064.514 10 0 60896 55800.00000 0 4467353.949 10401365.339 -22839945.443 10 0 60896 56700.00000 0 2652768.288 12504130.145 -22052410.455 10 0 60896 57600.00000 0 1076465.036 14639863.801 -20835664.123 10 0 60896 58500.00000 0 -237587.876 16743166.070 -19213288.519 10 0 60896 59400.00000 0 -1278109.598 18746804.935 -17216790.544 10 0 60896 60300.00000 0 -2046746.628 20584429.457 -14884991.825 10 0 60896 61200.00000 0 -2557760.385 22193265.745 -12263272.580 10 0 60896 62100.00000 0 -2837175.956 23516682.209 -9402684.071 10 0 60896 63000.00000 0 -2921428.976 24506515.650 -6358947.166 10 0 60896 63900.00000 0 -2855569.053 25125059.372 -3191357.191 10 0 60896 64800.00000 0 -2691097.320 25346628.831 38382.667 10 0 60896 65700.00000 0 -2483531.436 25158638.578 3267375.360 10 0 60896 66600.00000 0 -2289802.989 24562144.842 6432766.387 10 0 60896 67500.00000 0 -2165599.343 23571831.342 9472977.150 10 0 60896 68400.00000 0 -2162764.032 22215439.667 12328910.045 10 0 60896 69300.00000 0 -2326867.011 20532669.098 14945100.953 10 0 60896 70200.00000 0 -2695048.332 18573593.287 17270796.305 10 0 60896 71100.00000 0 -3294226.787 16396661.398 19260933.783 10 0 60896 72000.00000 0 -4139749.135 14066368.452 20877008.121 10 0 60896 72900.00000 0 -5234536.585 11650692.920 22087806.116 10 0 60896 73800.00000 0 -6568764.048 9218408.746 22869997.850 10 0 60896 74700.00000 0 -8120085.245 6836383.520 23208574.035 10 0 60896 75600.00000 0 -9854393.980 4566974.433 23097122.482 10 0 60896 76500.00000 0 -11727089.722 2465628.926 22537939.624 10 0 60896 77400.00000 0 -13684794.862 578788.103 21541976.004 10 0 60896 78300.00000 0 -15667452.545 -1057821.951 20128617.504 10 0 60896 79200.00000 0 -17610718.417 -2420441.996 18325306.871 10 0 60896 80100.00000 0 -19448547.559 -3498024.474 16167012.830 10 0 60896 81000.00000 0 -21115869.885 -4292442.218 13695556.667 10 0 60896 81900.00000 0 -22551243.508 -4818153.825 10958808.634 10 0 60896 82800.00000 0 -23699376.287 -5101340.891 8009768.935 10 0 60896 83700.00000 0 -24513411.021 -5178554.047 4905550.191 10 0 60896 84600.00000 0 -24956879.215 -5094925.095 1706280.186 10 0 60896 85500.00000 0 -25005241.820 -4902020.562 -1526054.594 10 0 60897 0.00000 0 -24646952.253 -4655427.045 -4728802.574 10 0 60897 900.00000 0 -23883996.397 -4412169.867 -7839856.926 10 0 60897 1800.00000 0 -22731886.641 -4228074.227 -10798854.172 10 0 60897 2700.00000 0 -21219108.563 -4155179.796 -13548344.215 10 0 60897 3600.00000 0 -19386042.558 -4239318.489 -16034904.879 10 0 60897 4500.00000 0 -17283404.180 -4517958.114 -18210180.991 10 0 60897 5400.00000 0 -14970267.177 -5018403.716 -20031827.477 10 0 60897 6300.00000 0 -12511750.647 -5756433.714 -21464338.005 10 0 60897 7200.00000 0 -9976465.888 -6735429.790 -22479742.801 10 0 60897 8100.00000 0 -7433828.606 -7946038.916 -23058161.743 10 0 60897 9000.00000 0 -4951347.945 -9366383.733 -23188201.518 10 0 60897 9900.00000 0 -2592004.964 -10962814.367 -22867188.458 10 0 60897 10800.00000 0 -411829.619 -12691172.047 -22101231.822 10 0 60897 11700.00000 0 1542222.762 -14498513.153 -20905115.397 10 0 60897 12600.00000 0 3234006.854 -16325222.634 -19302018.657 10 0 60897 13500.00000 0 4639462.094 -18107428.961 -17323072.059 10 0 60897 14400.00000 0 5747373.569 -19779619.598 -15006754.408 10 0 60897 15300.00000 0 6559587.486 -21277346.971 -12398143.557 10 0 60897 16200.00000 0 7090672.786 -22539910.614 -9548034.914 10 0 60897 17100.00000 0 7367044.094 -23512901.870 -6511945.113 10 0 60897 18000.00000 0 7425584.251 -24150502.919 -3349020.930 10 0 60897 18900.00000 0 7311826.136 -24417442.327 -120875.648 10 0 60897 19800.00000 0 7077772.461 -24290523.830 3109623.247 10 0 60897 20700.00000 0 6779447.699 -23759663.321 6279590.003 10 0 60897 21600.00000 0 6474287.709 -22828390.392 9327354.708 10 0 60897 22500.00000 0 6218479.252 -21513793.432 12193670.396 10 0 60897 23400.00000 0 6064363.447 -19845911.286 14822868.690 10 0 60897 24300.00000 0 6058013.948 -17866597.901 17163941.050 10 0 60897 25200.00000 0 6237092.769 -15627908.506 19171524.654 10 0 60897 26100.00000 0 6629074.342 -13190075.864 20806774.193 10 0 60897 27000.00000 0 7249912.399 -10619161.851 22038103.577 10 0 60897 27900.00000 0 8103205.280 -7984482.633 22841784.418 10 0 60897 28800.00000 0 9179894.116 -5355914.564 23202391.072 10 0 60897 29700.00000 0 10458505.974 -2801192.172 23113085.073 10 0 60897 30600.00000 0 11905931.423 -383309.367 22575734.772 10 0 60897 31500.00000 0 13478703.828 1841869.793 21600868.950 10 0 60897 32400.00000 0 15124727.108 3827693.442 20207466.031 10 0 60897 33300.00000 0 16785380.278 5538412.938 18422583.341 10 0 60897 34200.00000 0 18397911.619 6950414.337 16280833.537 10 0 60897 35100.00000 0 19898023.419 8052941.031 13823717.985 10 0 60897 36000.00000 0 21222540.297 8848279.126 11098829.306 10 0 60897 36900.00000 0 22312050.451 9351399.219 8158937.733 10 0 60897 37800.00000 0 23113410.150 9589070.568 5060978.071 10 0 60897 38700.00000 0 23582007.123 9598485.486 1864955.952 10 0 60897 39600.00000 0 23683688.176 9425452.015 -1367206.147 10 0 60897 40500.00000 0 23396270.091 9122231.008 -4572861.450 10 0 60897 41400.00000 0 22710569.873 8745108.600 -7689847.366 10 0 60897 42300.00000 0 21630910.265 8351806.287 -10657686.792 10 0 60897 43200.00000 0 20175078.140 7998837.744 -13418759.104 10 0 60897 44100.00000 0 18373736.107 7738923.975 -15919418.236 10 0 60897 45000.00000 0 16269310.457 7618576.106 -18111036.070 10 0 60897 45900.00000 0 13914400.387 7675948.352 -19950950.810 10 0 60897 46800.00000 0 11369773.480 7939052.481 -21403301.757 10 0 60897 47700.00000 0 8702029.760 8424410.181 -22439733.995 10 0 60897 48600.00000 0 5981030.582 9136201.444 -23039958.940 10 0 60897 49500.00000 0 3277198.559 10065946.428 -23192159.396 10 0 60897 50400.00000 0 658800.379 11192735.861 -22893230.607 10 0 60897 51300.00000 0 -1810674.750 12484001.987 -22148851.884 10 0 60897 52200.00000 0 -4074932.021 13896799.238 -20973386.584 10 0 60897 53100.00000 0 -6086982.587 15379542.060 -19389611.494 10 0 60897 54000.00000 0 -7810861.647 16874127.784 -17428280.053 10 0 60897 54900.00000 0 -9222881.313 18318355.745 -15127527.188 10 0 60897 55800.00000 0 -10312365.949 19648540.794 -12532126.871 10 0 60897 56700.00000 0 -11081839.651 20802210.792 -9692616.705 10 0 60897 57600.00000 0 -11546658.716 21720773.569 -6664306.782 10 0 60897 58500.00000 0 -11734105.635 22352039.828 -3506192.723 10 0 60897 59400.00000 0 -11681984.288 22652494.429 -279795.036 10 0 60897 60300.00000 0 -11436777.321 22589219.062 2952051.396 10 0 60897 61200.00000 0 -11051445.547 22141384.363 6126432.720 10 0 60897 62100.00000 0 -10582964.416 21301248.009 9181590.935 10 0 60897 63000.00000 0 -10089703.596 20074616.588 12058132.932 10 0 60897 63900.00000 0 -9628762.119 18480752.039 14700189.201 10 0 60897 64800.00000 0 -9253372.906 16551727.067 17056499.262 10 0 60897 65700.00000 0 -9010487.068 14331257.324 19081402.650 10 0 60897 66600.00000 0 -8938640.134 11873060.010 20735716.659 10 0 60897 67500.00000 0 -9066189.900 9238808.140 21987484.710 10 0 60897 68400.00000 0 -9409999.463 6495766.140 22812582.040 10 0 60897 69300.00000 0 -9974620.000 3714205.225 23195168.378 10 0 60897 70200.00000 0 -10752006.684 964705.499 23127980.293 10 0 60897 71100.00000 0 -11721778.895 -1684544.127 22612458.896 10 0 60897 72000.00000 0 -12852013.227 -4170337.541 21658711.513 10 0 60897 72900.00000 0 -14100535.875 -6436828.749 20285308.852 10 0 60897 73800.00000 0 -15416660.392 -8437598.244 18518921.957 10 0 60897 74700.00000 0 -16743298.535 -10137324.587 16393805.964 10 0 60897 75600.00000 0 -18019356.567 -11512993.722 13951140.304 10 0 60897 76500.00000 0 -19182317.525 -12554597.424 11238237.437 10 0 60897 77400.00000 0 -20170902.213 -13265293.281 8307634.659 10 0 60897 78300.00000 0 -20927698.148 -13661020.658 5216085.641 10 0 60897 79200.00000 0 -21401646.837 -13769589.543 2023470.297 10 0 60897 80100.00000 0 -21550285.249 -13629280.931 -1208356.642 10 0 60897 81000.00000 0 -21341647.348 -13287017.711 -4416756.732 10 0 60897 81900.00000 0 -20755745.317 -12796182.945 -7539516.033 10 0 60897 82800.00000 0 -19785567.452 -12214177.255 -10516047.286 10 0 60897 83700.00000 0 -18437549.608 -11599818.046 -13288562.962 10 0 60897 84600.00000 0 -16731498.904 -11010690.098 -15803196.495 10 0 60897 85500.00000 0 -14699971.199 -10500559.242 -18011049.877 99